GFSSGP_prec_cloud_105.txt.gz
Cloud_Cover
0 3 1 4 4 74 35 57 66 6 12 12 4 2 0 0 0 0 7 0 0 0 0 1 0 4 0 2 1 3 5 3 12 12 12 100 46 0 0 0 0 0 12 0 0 0 5 5 3
5 4 3 0 2 5 5 38 10 99 94 6 4 5 0 0 0 92 27 0 0 0 13 0 0 0 0 0 0 1 11 8 25 95 88 25 0 0 0 0 0 4 30 0 0 1 2 16 0
85 86 26 4 5 24 0 1 6 85 100 33 17 53 4 0 5 26 0 0 0 36 10 4 0 1 52 3 20 81 17 86 72 3 0 0 0 0 0 0 5 9 4 5 69 9 4 1 0
4 5 5 36 99 90 5 0 5 50 92 100 76 6 0 0 0 0 5 10 10 46 0 3 0 70 5 4 24 100 100 69 0 0 0 0 0 0 16 0 1 5 5 18 31 5 19 7 5
4 2 5 92 100 100 100 15 100 90 37 33 8 4 5 5 0 0 29 21 42 16 4 2 0 100 3 0 0 0 0 0 0 0 6 100 96 100 100 100 100 88 13 23 5 5 13 0 0
75 5 80 97 100 100 100 6 89 100 100 75 20 100 80 67 1 0 31 31 13 5 0 4 6 17 5 2 0 0 0 0 0 12 81 89 100 100 100 86 89 38 1 3 0 0 0 0 0
1 5 24 65 99 100 100 95 5 85 85 40 73 40 52 100 3 5 6 98 88 12 2 23 48 66 58 5 0 0 0 0 9 4 92 100 100 96 3 1 0 1 0 0 0 1 0 0 0
5 0 22 15 100 100 100 92 6 15 93 94 86 58 100 96 96 5 5 34 100 74 57 99 98 100 55 5 4 3 11 11 21 100 100 100 100 34 9 0 0 0 0 2 4 4 5 5 5
0 0 5 100 100 100 100 100 8 5 52 76 99 100 100 100 47 14 95 94 85 85 100 72 30 62 93 68 5 12 19 23 76 24 34 10 0 4 5 2 0 1 0 0 0 0 0 0 4
0 0 0 71 100 100 100 100 79 1 53 22 25 89 100 100 55 94 86 100 100 94 98 87 97 100 100 78 28 18 38 64 0 0 0 0 0 0 4 5 5 5 5 5 5 5 5 5 5
0 0 0 2 90 75 100 100 100 5 5 31 36 18 60 100 100 100 100 100 100 88 100 100 99 28 99 100 85 50 44 6 2 3 0 2 0 0 0 0 0 3 6 36 17 5 5 5 5
0 0 0 0 1 6 100 100 100 100 90 100 100 100 52 100 100 100 100 100 100 100 62 34 62 82 100 80 20 23 2 18 1 5 5 23 34 6 0 0 0 0 0 1 6 0 46 15 7
0 0 0 0 0 0 77 100 100 100 100 100 100 100 100 99 99 100 100 100 100 100 100 100 100 100 100 99 70 21 11 4 2 4 19 91 100 83 20 0 0 0 3 5 55 29 4 0 0
0 0 0 0 0 0 0 95 100 100 100 100 100 100 99 100 100 100 100 100 100 100 100 100 100 100 100 73 44 93 98 92 62 79 11 100 99 10 5 5 4 4 5 76 13 16 16 4 2
0 0 0 0 0 0 0 3 100 100 100 100 100 100 100 100 100 100 100 100 100 100 100 100 100 100 100 52 49 87 100 84 14 6 60 70 100 94 6 5 5 5 5 5 32 19 49 41 5
0 0 0 0 0 0 0 0 5 100 100 100 98 97 100 100 100 100 100 100 100 100 100 100 100 100 100 100 100 100 100 96 12 85 98 100 100 61 5 5 4 5 5 14 77 83 65 34 11
4 5 3 0 0 0 0 0 0 9 91 100 91 33 73 100 100 100 100 100 100 100 100 100 100 100 100 100 100 100 100 99 100 81 55 30 8 6 5 5 5 5 5 5 13 66 36 12 7
3 4 2 0 0 0 0 0 0 0 1 59 18 100 6 93 100 100 100 100 100 100 100 100 100 100 100 100 100 100 97 84 62 98 99 98 91 80 8 23 6 15 37 54 17 27 4 24 22
79 15 14 0 0 0 0 0 0 0 0 0 34 5 99 13 57 100 100 100 100 100 100 100 100 100 100 100 100 100 100 100 100 96 100 100 100 100 100 59 55 5 85 85 62 16 41 5 4
100 100 27 66 94 7 12 0 0 0 0 0 0 2 3 99 31 62 85 100 100 100 100 100 100 100 100 100 100 100 100 100 100 100 100 100 100 100 100 100 100 94 47 73 62 79 53 54 83
98 82 100 100 100 100 100 95 66 1 0 0 0 0 0 10 100 16 11 98 100 100 100 100 100 100 100 100 100 100 100 100 100 100 100 100 100 100 100 100 100 100 100 100 100 100 100 68 100
25 6 58 71 100 100 100 100 100 87 3 0 0 0 0 0 28 100 35 24 100 100 100 100 100 100 100 100 100 100 100 100 100 100 100 100 100 100 100 100 100 100 100 100 100 100 72 23 30
36 74 24 66 98 37 80 89 4 3 81 6 0 0 0 0 0 9 100 100 19 100 100 100 100 100 100 100 100 100 100 100 100 100 100 100 100 100 100 100 100 100 96 92 100 60 84 65 99
5 100 12 5 87 72 100 100 4 86 86 78 2 0 0 0 19 0 25 100 82 19 100 100 100 100 100 100 100 100 100 100 100 100 100 100 100 100 100 100 82 90 80 90 57 60 10 98 92
0 97 20 9 48 100 100 98 100 100 100 100 84 84 100 30 23 22 15 67 67 32 100 100 100 100 100 100 100 100 100 100 100 100 100 100 100 100 100 100 100 100 87 95 88 99 100 95 100
0 13 85 100 88 81 100 100 100 100 100 100 100 100 100 100 79 75 75 67 100 100 100 100 100 100 100 100 100 100 100 100 100 100 100 100 100 100 100 100 100 88 83 76 78 97 100 100 99
0 10 14 99 93 81 100 100 100 100 100 100 97 84 100 100 100 100 100 100 100 100 100 100 100 100 100 100 100 100 100 100 100 100 100 100 100 100 100 100 100 100 100 100 100 100 100 100 100
0 1 29 7 51 83 100 100 100 100 100 100 100 78 32 68 44 82 100 100 100 100 100 100 100 100 100 100 100 100 100 100 100 100 100 100 100 100 100 100 100 100 100 100 100 100 100 92 33
0 4 0 5 25 99 98 100 100 100 100 100 100 16 64 1 13 45 97 100 100 100 100 100 100 100 100 100 100 100 100 100 100 100 100 100 100 100 100 100 100 100 100 100 100 100 24 5 4
0 5 0 0 9 65 98 96 91 100 100 100 100 89 88 71 51 100 100 100 100 100 100 100 100 100 100 100 100 100 100 100 72 78 100 100 100 89 100 100 100 100 100 98 9 5 5 5 4

GFSSGP_prec_cloud_108.txt.gz
Cloud_Cover
0 0 0 0 0 3 0 0 0 5 97 100 100 14 2 9 3 0 17 6 0 0 0 0 0 0 0 0 6 2 0 1 13 12 2 100 7 5 5 5 10 2 0 0 0 1 0 0 0
54 5 0 5 0 2 14 0 0 4 8 63 23 7 3 3 1 100 81 35 0 0 0 3 0 0 0 1 2 2 14 8 5 20 87 30 0 0 0 0 2 41 7 0 0 10 1 0 0
63 100 15 5 5 87 92 1 0 1 4 31 5 9 67 23 37 93 0 6 0 0 13 2 0 0 0 4 6 13 3 12 58 88 0 0 0 0 0 1 0 2 17 37 0 5 10 0 0
17 17 61 70 77 100 100 1 0 0 8 91 66 100 100 53 36 5 1 13 9 31 7 5 0 0 1 0 1 0 99 97 17 0 0 0 0 0 0 13 7 8 76 0 5 3 5 5 0
13 18 20 100 100 100 100 26 0 27 45 99 100 98 100 100 77 92 28 15 78 32 0 6 5 0 0 0 11 92 97 11 0 0 14 2 70 75 3 15 2 9 4 36 14 9 5 0 0
71 89 92 75 100 100 100 84 0 6 70 100 52 90 100 100 56 85 29 57 56 7 0 5 6 43 14 11 0 35 0 0 0 1 95 100 42 49 73 100 86 69 100 12 0 22 0 0 0
0 0 11 48 100 100 100 97 3 3 5 24 7 6 98 100 98 65 51 32 31 0 43 4 5 10 3 0 4 5 1 3 30 6 0 100 100 100 100 74 39 0 1 0 0 8 0 0 0
0 0 0 4 82 100 100 100 7 3 9 5 20 71 100 100 99 75 47 48 16 5 19 1 2 2 0 2 92 65 21 1 4 28 13 100 100 42 4 0 0 0 0 0 0 0 0 0 0
0 0 0 0 0 18 5 99 88 5 5 5 48 24 95 100 100 100 100 99 66 30 28 19 35 26 52 84 38 1 12 26 5 10 95 99 65 2 0 0 0 0 0 0 0 0 0 0 0
0 0 0 0 0 0 0 15 99 29 18 55 29 93 95 100 100 100 100 100 100 100 97 10 92 86 82 96 76 21 28 92 79 6 20 0 0 0 0 0 0 0 0 0 0 0 0 3 5
0 0 0 0 0 0 0 0 51 100 79 88 50 96 100 100 100 100 100 100 100 100 100 74 100 100 100 100 69 96 87 84 9 3 0 0 0 0 0 0 0 0 0 0 3 0 0 2 31
0 0 0 0 0 0 0 0 0 16 100 100 50 90 100 100 100 100 100 100 100 100 98 99 100 100 100 74 47 91 100 16 3 0 0 0 0 0 0 1 1 0 5 5 4 0 0 0 0
0 0 0 0 0 0 0 0 0 1 95 100 100 20 99 100 100 100 100 90 100 100 77 97 100 100 100 83 47 82 84 30 3 0 3 0 0 2 4 8 4 4 14 3 1 0 0 0 1
0 0 0 0 0 0 0 0 0 1 67 98 100 100 100 100 100 100 86 90 100 97 100 100 100 100 99 100 100 100 90 16 5 80 65 6 75 64 6 5 5 5 6 5 0 0 2 0 4
0 0 0 0 0 0 0 0 0 0 3 3 100 100 100 100 100 100 100 100 100 100 100 100 100 100 100 100 98 99 13 6 76 70 51 6 54 19 5 5 5 7 29 5 5 5 5 5 5
0 0 0 0 0 0 0 0 0 0 0 0 5 100 100 100 100 100 100 100 100 100 100 100 100 100 100 100 100 100 18 40 89 98 22 22 97 100 8 27 5 5 5 5 5 5 5 7 71
10 20 1 0 0 0 0 0 0 0 0 0 0 11 97 74 100 100 100 100 100 100 100 100 100 100 100 100 100 100 100 100 100 100 100 100 100 100 65 5 5 5 5 5 5 5 4 18 61
90 43 99 100 98 25 0 0 0 0 0 0 0 0 8 91 100 100 100 100 100 100 100 100 100 100 100 100 100 100 100 100 100 100 100 100 100 69 84 9 5 5 5 5 5 4 5 5 5
99 35 97 77 72 52 64 37 0 0 0 0 0 0 0 5 100 100 100 100 100 100 100 100 100 100 100 100 100 100 100 100 100 100 100 100 100 96 98 97 79 70 53 60 8 5 5 47 69
61 5 5 12 84 100 98 7 5 5 0 0 0 0 0 0 26 100 100 100 100 100 100 100 100 100 100 100 100 100 100 80 99 100 100 100 100 100 86 100 97 100 100 100 93 100 61 41 75
0 0 1 42 91 8 43 100 44 5 0 0 0 0 0 0 7 100 100 100 100 100 100 100 100 100 100 100 100 100 100 100 100 100 100 100 100 100 100 100 100 100 100 100 100 100 100 100 100
0 0 2 3 47 96 86 100 14 0 76 52 0 0 0 0 0 72 100 100 100 100 100 100 100 100 100 100 100 100 100 100 100 100 100 100 100 100 100 100 100 100 100 100 100 100 100 92 56
0 0 0 0 21 83 85 58 22 3 0 48 100 64 0 0 0 4 100 100 100 100 100 100 100 100 100 100 100 100 100 100 100 100 100 100 100 100 100 100 100 100 100 87 93 100 99 90 79
0 0 0 0 53 92 100 100 41 100 97 72 41 100 97 93 6 0 43 100 100 100 100 100 100 100 100 100 100 100 100 100 100 100 100 100 100 100 100 100 100 100 100 100 100 95 100 85 98
0 0 12 5 41 18 100 98 100 100 100 100 100 100 100 100 100 51 3 31 100 100 100 100 100 100 100 100 100 100 100 100 100 100 100 100 100 100 100 100 100 100 100 100 95 100 100 100 98
0 0 99 51 89 54 100 100 100 100 100 100 95 100 100 100 100 100 100 75 94 100 100 100 100 100 100 100 100 100 100 100 100 100 100 100 100 100 100 100 100 100 100 100 100 100 100 100 100
0 8 2 73 31 83 36 100 100 100 100 100 100 100 100 100 100 100 100 100 100 100 100 100 100 100 100 100 100 100 100 100 100 100 100 100 100 100 100 100 100 100 100 100 100 100 100 100 100
0 0 5 4 80 68 26 100 100 100 100 100 100 100 100 100 100 100 100 100 100 100 100 100 100 100 100 100 100 100 100 100 100 100 100 100 100 100 100 100 100 100 100 100 100 100 100 100 100
0 0 0 0 22 20 94 56 100 100 100 100 100 100 100 100 100 100 100 100 100 100 100 100 100 100 100 100 100 100 100 100 100 100 100 100 100 100 100 100 100 100 100 100 100 100 100 100 100
0 0 0 0 3 4 30 78 93 95 100 100 100 100 74 94 99 96 99 100 100 100 100 100 100 100 100 100 100 100 100 100 100 100 100 100 100 100 100 100 100 100 98 91 100 100 98 28 56

GFSSGP_prec_cloud_111.txt.gz
Cloud_Cover
42 6 5 4 0 5 5 1 0 0 0 0 3 16 5 5 5 1 26 28 0 0 38 3 0 0 0 0 0 3 7 11 10 18 56 0 0 0 0 4 6 5 3 3 0 0 0 0 10
1 2 5 5 50 27 33 2 0 0 1 1 0 4 5 8 33 78 83 47 5 27 52 34 0 0 0 0 0 4 2 6 10 4 89 0 0 0 0 6 7 0 1 0 4 0 0 0 0
3 0 1 80 90 100 100 5 0 4 4 5 4 4 2 4 51 88 11 12 1 62 52 25 0 0 0 0 2 8 7 9 6 2 0 0 0 0 0 10 23 0 0 3 9 0 0 0 0
1 6 73 17 99 100 100 71 25 0 1 32 63 5 5 5 9 9 31 8 5 22 18 5 0 0 0 2 0 7 1 18 99 2 0 0 0 0 18 15 5 0 0 0 9 4 0 0 0
1 2 32 86 100 100 100 100 8 5 4 12 66 45 9 9 98 24 47 15 7 56 27 23 27 1 0 0 1 1 93 60 2 4 0 0 0 6 6 4 10 2 4 7 6 0 0 0 0
0 3 22 11 100 100 100 100 8 3 5 5 37 9 42 50 89 84 59 29 5 45 75 21 16 5 0 1 1 5 100 2 2 0 0 57 9 7 0 1 50 80 1 17 12 0 0 0 0
0 0 0 1 31 100 100 98 100 5 5 18 14 36 47 44 100 86 96 100 89 59 29 49 64 22 0 0 0 20 11 0 2 2 27 0 3 2 19 99 100 77 0 11 0 0 0 0 0
0 0 0 0 0 6 96 91 19 5 5 3 10 13 100 57 100 90 86 94 100 73 24 27 45 42 45 9 0 0 0 0 5 1 3 3 10 94 100 12 0 0 0 9 0 0 0 0 0
0 0 0 0 0 0 1 5 5 5 22 3 5 52 43 38 85 96 96 99 97 100 68 32 5 5 5 5 2 1 5 5 10 5 10 32 100 45 5 2 0 0 0 0 0 0 0 0 0
0 0 0 0 0 0 0 0 1 4 16 53 33 71 100 98 100 100 98 90 100 82 100 98 68 15 5 5 5 5 7 12 71 21 0 33 6 0 3 0 2 1 3 0 0 0 0 0 0
0 0 0 0 0 0 0 0 0 0 0 2 18 41 100 100 100 100 100 100 92 100 100 100 99 14 29 12 21 47 96 83 6 5 4 2 4 5 0 0 0 1 2 0 0 0 0 0 0
0 0 0 0 0 0 0 0 0 0 0 0 0 55 100 100 100 100 100 98 100 100 100 100 100 100 100 100 97 80 99 100 91 9 3 0 0 4 0 0 0 0 0 1 2 0 0 0 0
0 0 0 0 0 0 0 0 0 0 0 0 0 0 23 100 100 100 100 100 98 100 100 100 79 78 100 100 58 96 95 100 40 33 32 5 34 4 5 4 1 2 0 1 1 1 0 1 0
0 0 0 0 0 0 0 0 0 0 0 0 0 0 3 94 100 100 100 100 100 100 100 100 99 100 100 100 78 93 100 92 36 59 23 20 75 40 34 22 8 5 4 5 0 0 3 0 0
3 1 0 0 0 0 0 0 0 0 0 0 0 0 0 8 100 100 100 100 100 98 100 99 100 100 100 100 95 99 100 52 81 97 100 88 7 5 5 5 5 5 16 52 5 5 3 1 5
15 5 9 89 12 0 0 0 0 0 0 0 0 0 0 1 100 100 100 100 100 100 100 100 100 100 100 100 100 100 100 63 82 76 5 6 5 15 16 21 80 75 96 43 31 7 5 5 4
5 5 55 23 29 88 43 5 0 0 0 0 0 0 0 0 90 100 100 100 100 100 100 100 100 100 100 100 100 99 100 29 34 84 95 60 100 100 98 96 70 62 98 96 32 5 5 5 2
0 0 0 23 38 34 96 94 5 0 0 0 0 0 0 0 74 100 100 100 100 100 100 100 100 100 100 100 100 100 100 96 36 87 100 100 100 97 100 95 97 100 63 5 5 5 5 2 5
0 0 0 0 74 5 5 5 3 0 0 0 0 0 0 0 0 100 100 100 100 100 100 100 100 100 100 100 100 100 100 100 100 100 100 100 100 100 100 100 100 47 57 45 15 48 85 100 100
0 0 0 0 2 7 8 44 100 100 100 3 0 0 0 0 0 0 100 100 100 100 100 100 100 100 100 100 100 100 100 100 100 100 100 100 100 100 100 100 92 53 99 100 90 99 100 89 84
0 0 0 0 0 4 87 100 98 5 1 5 4 0 0 0 0 0 42 100 100 100 100 100 100 100 100 100 100 100 100 100 100 100 100 100 100 100 100 100 100 100 100 100 100 100 100 100 100
0 0 0 0 0 3 83 100 58 4 2 22 1 98 7 0 0 0 0 97 100 100 100 100 100 100 100 100 100 100 100 100 100 100 100 100 100 100 100 100 100 100 100 100 100 100 100 100 100
0 0 0 0 0 0 95 92 35 5 79 92 93 46 100 0 0 0 0 0 100 100 100 100 100 100 100 100 100 100 100 100 100 100 100 100 100 100 100 100 100 100 100 100 100 100 100 100 100
0 0 0 0 0 2 99 50 54 79 100 100 100 100 100 73 4 33 0 0 26 100 100 100 100 100 100 100 100 100 100 100 100 100 100 100 100 100 100 100 100 100 100 100 100 100 100 100 100
0 0 4 1 7 4 9 37 100 100 100 100 100 100 100 99 100 98 56 48 48 78 100 100 100 100 100 100 100 100 100 100 100 100 100 100 100 100 100 100 100 100 100 100 100 100 100 100 100
0 0 13 9 6 28 5 87 100 100 100 100 100 100 100 100 100 100 100 99 92 99 100 100 100 100 100 100 100 100 100 100 100 100 100 100 100 100 100 100 100 100 100 100 100 100 100 100 100
0 0 1 10 28 48 15 50 100 100 100 100 100 100 100 100 100 100 100 100 100 100 100 100 100 100 100 100 100 100 100 100 100 100 100 100 100 100 100 100 100 100 100 100 100 100 100 100 100
0 0 0 2 63 11 4 7 95 100 100 100 100 100 100 100 100 100 100 100 100 100 100 100 100 100 100 100 100 100 100 100 100 100 100 100 100 100 100 100 100 100 100 100 100 100 100 100 100
0 0 0 0 13 18 4 4 57 95 100 97 87 84 100 100 100 100 100 100 100 100 100 100 100 100 100 100 100 100 100 100 100 100 100 100 100 100 100 100 100 100 100 100 100 100 100 100 100
0 0 0 0 0 14 23 1 6 76 100 100 99 71 98 100 100 100 100 100 100 100 100 100 100 100 100 100 100 100 100 100 100 100 100 100 100 100 100 100 100 100 100 100 100 100 100 100 100

GFSSGP_prec_cloud_114.txt.gz
Cloud_Cover
0 0 0 0 2 2 5 5 5 5 5 5 0 0 0 0 0 8 14 10 7 2 10 20 0 0 0 0 0 5 4 2 6 18 7 0 0 3 9 0 0 1 4 0 0 0 0 0 0
0 0 0 0 0 4 26 5 0 4 5 5 4 0 0 0 0 3 12 6 3 5 2 35 0 0 0 0 0 2 4 5 14 7 14 7 0 0 12 9 0 0 2 2 3 0 0 0 1
0 0 0 0 1 19 6 19 0 2 4 5 5 5 2 0 1 1 6 5 5 2 86 4 5 10 2 1 1 4 3 3 18 17 0 0 0 0 7 16 0 0 6 1 0 2 0 0 1
0 0 0 0 5 37 5 100 5 5 5 5 5 5 5 1 0 5 96 10 5 10 52 21 0 3 5 4 1 3 2 16 27 0 0 0 0 0 8 57 5 0 0 3 5 0 0 0 0
0 0 0 0 2 2 5 18 61 4 5 52 12 9 5 5 2 2 5 5 50 9 26 10 5 5 5 10 3 8 4 5 22 0 0 0 0 21 2 12 0 11 7 1 10 0 0 0 0
0 0 0 0 0 2 0 4 5 4 4 14 98 70 28 5 5 5 5 5 5 6 5 7 38 4 5 60 42 70 5 95 12 0 0 0 6 9 0 10 2 3 16 15 0 0 0 0 0
0 0 0 0 0 0 0 0 0 3 5 41 36 100 92 91 74 8 5 5 9 48 30 100 36 5 5 27 94 17 96 66 2 0 0 0 7 6 3 8 7 7 23 3 0 0 0 0 0
0 0 0 0 0 0 0 0 22 0 16 5 45 74 100 100 100 82 12 23 5 6 23 100 70 51 30 59 47 99 70 5 0 0 0 10 0 1 28 98 38 0 5 0 0 0 0 1 0
0 0 0 0 0 0 0 0 0 0 0 5 52 59 98 100 100 100 100 95 77 39 40 100 87 91 98 68 100 96 99 12 0 6 0 11 82 82 3 6 3 5 15 3 3 1 2 0 0
0 0 0 0 0 0 0 0 0 0 0 0 0 45 95 100 100 100 100 100 100 100 92 100 100 96 99 98 13 34 6 56 76 83 50 13 62 10 2 0 0 12 2 0 1 1 4 0 0
0 0 0 0 0 0 0 0 0 0 0 0 0 0 90 100 100 100 100 100 100 100 100 100 95 94 100 96 97 11 5 30 94 100 49 69 5 2 2 0 0 1 0 0 0 0 0 0 0
0 0 0 0 0 0 0 0 0 0 0 0 0 0 65 100 100 100 100 100 100 100 100 100 100 31 6 86 33 94 97 72 100 67 91 71 94 32 5 5 5 0 0 0 0 5 0 0 0
0 0 0 0 0 0 0 0 0 0 0 0 0 0 1 94 100 100 100 100 100 100 100 100 100 70 38 5 71 100 100 92 100 100 98 96 5 5 30 20 5 5 5 6 5 2 5 4 0
0 0 1 3 0 0 0 0 0 0 0 0 0 0 0 1 73 100 100 100 100 100 100 100 87 94 73 84 79 100 100 100 100 100 99 64 15 7 58 41 55 37 13 10 5 5 2 3 3
0 0 0 5 5 24 0 0 0 0 0 0 0 0 0 0 0 66 100 100 100 100 100 100 100 99 69 68 97 100 100 100 100 100 72 31 54 62 5 70 60 46 5 5 5 3 6 27 14
0 1 3 2 5 58 77 6 0 0 0 0 0 0 0 0 0 0 21 100 100 100 100 100 100 99 78 68 100 100 100 100 100 100 100 97 30 36 75 6 5 5 6 8 5 11 5 5 5
0 2 1 3 4 23 82 19 2 2 0 0 0 0 0 0 0 0 3 99 100 100 100 100 100 100 94 91 100 100 100 100 100 100 100 100 25 35 60 10 73 87 94 76 45 17 15 5 5
0 1 4 5 3 8 23 98 73 46 59 4 0 0 0 0 0 0 0 98 68 100 100 100 100 100 100 100 100 100 100 100 100 100 100 99 55 28 77 67 100 100 100 90 100 78 14 24 6
0 0 3 2 0 0 5 18 99 42 5 3 3 0 0 0 0 0 4 61 95 100 100 100 100 100 100 100 100 100 100 100 100 100 100 100 100 100 92 100 100 100 96 56 19 63 7 4 5
0 0 0 1 0 4 5 10 17 5 5 2 1 2 0 0 0 0 3 7 100 100 100 100 100 100 100 100 100 100 100 100 100 100 100 100 100 100 88 100 100 72 15 11 94 100 99 35 55
0 0 0 0 0 1 5 27 5 36 13 6 15 99 8 0 0 0 2 5 50 100 100 100 100 100 100 100 100 100 100 100 100 100 100 100 100 100 100 100 100 100 100 100 100 100 100 63 100
0 0 0 0 0 2 4 43 57 15 5 57 94 71 100 12 0 0 0 11 14 100 100 100 100 100 100 100 100 100 100 100 100 100 100 100 100 100 100 100 100 100 100 100 100 100 100 100 100
0 0 0 0 0 2 0 47 64 20 82 75 99 100 100 76 36 0 0 0 5 81 100 100 100 100 100 100 100 100 100 100 100 100 100 100 100 100 100 100 100 100 100 100 100 100 100 100 100
0 0 0 0 0 66 13 75 92 99 100 100 100 100 100 100 82 1 2 0 0 7 100 100 100 100 100 100 100 100 100 100 100 100 100 100 100 100 100 100 100 100 100 100 100 100 100 100 100
0 0 3 2 5 4 4 65 99 100 100 100 100 100 100 100 100 98 3 4 4 95 100 100 100 100 100 100 100 100 100 100 100 100 100 100 100 100 100 100 100 100 100 100 100 100 100 100 100
0 0 4 45 1 5 4 51 100 98 100 100 100 100 100 100 100 100 100 100 100 100 100 100 100 100 100 100 100 100 100 100 100 100 100 100 100 100 100 100 100 100 100 100 100 100 100 100 100
0 0 0 39 16 63 11 74 73 94 29 100 100 100 100 100 100 100 100 100 100 100 100 100 100 100 100 100 100 100 100 100 100 100 100 100 100 100 100 100 100 100 100 100 100 100 100 100 100
0 0 0 2 4 3 5 3 76 62 5 89 96 100 100 100 100 100 100 100 100 100 100 100 100 100 100 100 100 100 100 100 100 100 100 100 100 100 100 100 100 100 100 100 100 100 100 100 100
0 0 0 1 1 2 3 0 5 92 56 5 60 100 100 100 100 100 100 100 100 100 100 100 100 100 100 100 100 100 100 100 100 100 100 100 100 100 100 100 100 100 100 100 100 100 100 100 100
0 0 0 0 0 1 0 1 0 9 77 5 39 98 100 100 100 100 100 100 100 100 100 100 100 100 100 100 100 100 100 100 100 100 100 100 100 100 100 100 100 100 100 100 100 100 100 100 100

GFSSGP_prec_cloud_117.txt.gz
Cloud_Cover
29 3 1 17 0 0 2 0 5 31 8 10 4 0 2 5 32 30 2 2 0 0 0 0 0 0 0 0 0 0 1 0 16 23 0 0 6 0 0 0 17 14 0 0 0 0 0 0 0
0 0 18 3 19 1 0 3 2 2 5 19 5 5 0 8 0 0 0 0 0 0 7 42 4 1 0 0 6 2 11 9 21 24 12 0 2 0 0 0 4 2 1 0 0 0 0 4 6
0 0 3 0 5 4 4 94 10 5 3 3 5 5 7 53 0 0 0 0 0 3 10 80 82 28 3 0 1 1 15 12 18 26 4 0 0 15 10 2 4 5 98 5 0 0 0 1 18
0 0 0 1 5 5 5 83 12 2 0 5 5 97 7 5 5 5 0 0 0 1 10 14 48 5 5 4 17 8 7 13 18 0 0 0 0 14 0 3 2 13 0 0 0 0 0 0 0
0 0 0 0 5 4 15 84 46 5 3 53 17 29 72 92 6 5 4 0 0 8 25 3 16 10 5 5 12 12 14 28 3 0 0 0 0 9 3 0 2 11 15 11 0 0 0 0 0
0 0 0 0 0 2 5 97 54 16 50 79 91 97 76 100 90 5 5 5 7 12 44 81 36 9 74 32 43 9 25 11 5 2 1 4 16 1 24 1 2 12 14 0 0 0 0 0 0
0 0 0 0 0 0 5 96 18 29 60 92 98 56 88 100 93 81 5 5 14 5 5 78 100 75 94 100 95 94 28 12 5 5 9 6 11 0 16 5 2 37 0 0 0 0 0 0 0
0 0 0 0 0 0 5 5 82 63 86 10 40 29 70 12 99 100 84 73 6 5 6 72 99 85 34 46 66 5 18 95 49 14 37 5 15 1 0 0 7 22 10 0 0 0 0 0 0
0 0 0 0 0 0 4 1 1 2 0 3 0 0 60 100 100 100 100 100 96 27 13 88 100 100 65 77 19 8 5 6 79 48 61 84 51 33 1 38 0 31 0 0 0 0 0 0 1
0 0 0 0 0 0 0 0 3 11 4 0 0 0 0 17 100 99 100 100 100 97 97 50 100 99 100 98 17 8 5 11 86 98 15 96 54 15 100 1 5 4 0 0 0 0 0 1 1
0 0 0 0 0 0 0 0 0 0 0 0 20 20 8 0 11 100 100 100 100 100 100 100 99 96 48 100 75 6 6 87 45 95 41 40 99 6 6 8 15 8 5 4 5 1 0 0 1
0 0 0 0 0 0 0 0 0 0 0 0 0 0 0 0 20 30 100 100 100 100 100 100 100 100 98 81 28 12 46 98 100 100 100 100 34 52 9 7 28 12 44 26 5 5 3 2 0
0 0 0 0 0 1 0 0 0 0 0 0 0 0 0 0 1 40 98 100 100 100 100 100 100 99 100 100 19 18 98 100 100 100 100 96 96 88 84 5 23 87 22 52 48 27 5 5 3
0 0 0 0 0 6 86 0 0 0 0 0 0 0 0 0 0 5 4 100 99 100 100 100 100 86 94 100 100 62 73 62 100 100 100 99 86 100 100 46 61 90 14 48 44 5 14 5 5
0 0 3 0 0 0 80 10 3 0 0 0 0 0 0 0 0 0 0 31 90 100 100 100 100 100 100 100 30 90 100 92 100 100 99 100 100 100 100 62 86 72 72 42 33 54 47 5 5
0 11 38 30 0 4 3 11 13 58 60 0 0 0 0 0 0 0 0 0 23 98 100 100 100 100 30 87 88 37 84 100 100 100 75 100 100 100 100 93 92 33 20 5 5 5 5 5 5
43 5 5 19 5 9 42 5 7 60 74 6 7 2 0 0 0 0 0 0 0 71 94 100 100 100 88 5 84 100 100 100 100 100 100 100 100 100 100 96 86 90 5 6 5 5 29 5 8
0 2 5 5 2 0 5 5 46 19 13 11 14 2 1 2 0 0 0 0 0 18 64 66 78 46 100 100 70 88 100 99 100 100 100 100 100 100 100 86 47 94 63 30 7 85 98 100 10
0 2 6 6 0 2 5 5 4 11 17 46 100 75 1 5 17 0 0 0 17 0 97 100 100 100 100 100 100 99 100 100 100 100 100 100 100 100 100 100 74 85 90 100 100 98 95 100 7
0 1 3 3 3 1 5 50 46 84 93 100 55 87 96 1 0 0 0 0 0 22 100 100 100 100 100 100 100 100 100 100 100 100 100 100 100 100 100 100 99 100 100 100 95 81 38 78 100
0 0 0 0 0 10 0 99 100 71 46 83 58 99 78 99 11 0 0 0 0 0 94 100 100 100 100 100 100 100 100 100 100 100 100 100 100 100 100 100 100 100 100 100 100 86 100 99 100
0 0 0 0 1 55 50 53 100 4 9 72 100 84 100 75 81 0 0 0 0 0 7 100 100 100 100 100 100 100 100 100 100 100 100 100 100 100 100 100 100 100 100 100 100 100 100 100 100
0 0 0 0 0 59 41 82 96 5 10 88 100 100 100 100 100 57 0 0 0 0 37 70 88 100 100 100 100 100 100 100 100 100 100 100 100 100 100 100 100 100 100 100 100 100 100 100 100
0 0 0 0 2 99 22 68 96 16 100 100 96 100 100 100 100 93 0 0 0 0 84 65 55 100 100 100 100 100 100 100 100 100 100 100 100 100 100 100 100 100 100 100 100 100 100 100 100
0 0 3 22 5 56 7 99 48 44 100 100 100 100 100 100 100 100 42 0 0 38 75 39 92 100 100 100 100 100 100 100 100 100 100 100 100 100 100 100 100 100 100 100 100 100 100 100 100
0 0 4 81 2 3 5 13 25 20 100 100 100 100 100 100 100 100 99 7 82 100 100 100 100 100 100 100 100 100 100 100 100 100 100 100 100 100 100 100 100 100 100 100 100 100 100 100 100
0 0 0 24 7 61 18 3 87 69 50 30 98 100 100 100 100 100 100 100 100 100 100 100 100 100 100 100 100 100 100 100 100 100 100 100 100 100 100 100 100 100 100 100 100 100 100 100 100
0 0 0 16 48 32 68 0 4 5 4 9 81 100 100 100 100 100 100 100 100 100 100 100 100 100 100 100 100 100 100 100 100 100 100 100 100 100 100 100 100 100 100 100 100 100 100 100 100
0 0 0 2 0 5 28 1 0 4 5 5 60 100 100 100 100 100 100 100 100 100 100 100 100 100 100 100 100 100 100 100 100 100 100 100 100 100 100 100 100 100 100 100 100 100 100 100 100
0 0 0 0 0 5 2 11 0 0 5 5 100 48 100 100 100 100 100 100 100 100 100 100 97 64 100 100 100 100 100 100 100 100 100 100 100 100 100 100 100 100 100 100 100 100 100 100 100